When you browse on this site, cookies collect data to enhance your experience and personalize the content and advertising you see.
Visit our Privacy Policy to learn more. By continuing to use the site, you agree to this use of cookies and data.
  • In Hungary
  • List of Countries
  • For 7 days
  • Water Temperature
  • Weather Map
  • News
  • Weather Widgets
  • user-avatar
    Login

    Hourly Weather Bolnisi

    Today, 19 November, Tuesday

    Time Temperature Precipitation Wind Pressure Humidity
    00:00 +4°C° 0 mm 1 mps 695 mmHg 67%
    01:00 +4°C° 0 mm 1 mps 695 mmHg 66%
    02:00 +2°C° 0 mm 0 mps 695 mmHg 64%
    03:00 +2°C° 0 mm 0 mps 694 mmHg 63%
    04:00 +2°C° 0 mm 0 mps 694 mmHg 61%
    05:00 +2°C° 0 mm 0 mps 695 mmHg 60%
    06:00 +2°C° 0 mm 0 mps 695 mmHg 58%
    07:00 +3°C° 0 mm 0 mps 695 mmHg 52%
    08:00 +5°C° 0 mm 0 mps 695 mmHg 47%
    09:00 +6°C° 0 mm 0 mps 695 mmHg 42%
    10:00 +8°C° 0 mm 0 mps 695 mmHg 39%
    11:00 +10°C° 0 mm 1 mps 695 mmHg 37%
    12:00 +11°C° 0 mm 1 mps 695 mmHg 35%
    13:00 +11°C° 0 mm 1 mps 694 mmHg 36%
    14:00 +11°C° 0 mm 1 mps 694 mmHg 37%
    15:00 +11°C° 0 mm 1 mps 694 mmHg 38%
    16:00 +10°C° 0 mm 1 mps 694 mmHg 43%
    17:00 +9°C° 0 mm 1 mps 694 mmHg 47%
    18:00 +7°C° 0 mm 1 mps 694 mmHg 52%
    19:00 +7°C° 0 mm 1 mps 694 mmHg 52%
    20:00 +7°C° 0 mm 1 mps 694 mmHg 52%
    21:00 +6°C° 0 mm 1 mps 694 mmHg 52%
    22:00 +6°C° 0 mm 1 mps 694 mmHg 52%
    23:00 +6°C° 0 mm 1 mps 694 mmHg 52%

    Tomorrow, 20 November, Wednesday

    Time Temperature Precipitation Wind Pressure Humidity
    00:00 +5°C° 0 mm 1 mps 694 mmHg 52%
    01:00 +5°C° 0 mm 1 mps 694 mmHg 51%
    02:00 +5°C° 0 mm 1 mps 694 mmHg 51%
    03:00 +5°C° 0 mm 1 mps 694 mmHg 50%
    04:00 +5°C° 0 mm 1 mps 694 mmHg 49%
    05:00 +5°C° 0 mm 1 mps 694 mmHg 49%
    06:00 +5°C° 0 mm 1 mps 694 mmHg 48%
    07:00 +6°C° 0 mm 1 mps 694 mmHg 45%
    08:00 +7°C° 0 mm 1 mps 694 mmHg 41%
    09:00 +8°C° 0 mm 0 mps 694 mmHg 38%
    10:00 +10°C° 0 mm 1 mps 694 mmHg 36%
    11:00 +11°C° 0 mm 1 mps 693 mmHg 33%
    12:00 +13°C° 0 mm 1 mps 693 mmHg 31%
    13:00 +13°C° 0 mm 1 mps 693 mmHg 33%
    14:00 +12°C° 0 mm 1 mps 692 mmHg 34%
    15:00 +12°C° 0 mm 1 mps 692 mmHg 36%
    16:00 +11°C° 0 mm 1 mps 692 mmHg 41%
    17:00 +9°C° 0 mm 1 mps 692 mmHg 46%
    18:00 +6°C° 0 mm 0 mps 692 mmHg 51%
    19:00 +6°C° 0 mm 0 mps 692 mmHg 52%
    20:00 +5°C° 0 mm 0 mps 692 mmHg 54%
    21:00 +5°C° 0 mm 0 mps 693 mmHg 55%
    22:00 +4°C° 0 mm 0 mps 693 mmHg 58%
    23:00 +4°C° 0 mm 0 mps 693 mmHg 62%

    Day after tomorrow, 21 November, Thursday

    Time Temperature Precipitation Wind Pressure Humidity
    00:00 +4°C° 0 mm 1 mps 693 mmHg 65%
    01:00 +3°C° 0 mm 0 mps 693 mmHg 68%
    02:00 +2°C° 0 mm 0 mps 693 mmHg 71%
    03:00 +2°C° 0 mm 0 mps 693 mmHg 75%
    04:00 +2°C° 0 mm 0 mps 693 mmHg 76%
    05:00 +2°C° 0 mm 0 mps 693 mmHg 77%
    06:00 +2°C° 0 mm 0 mps 693 mmHg 79%
    07:00 +3°C° 0 mm 0 mps 693 mmHg 80%
    08:00 +3°C° 0 mm 0 mps 693 mmHg 81%
    09:00 +3°C° 0 mm 0 mps 693 mmHg 83%
    10:00 +5°C° 0.1 mm 1 mps 693 mmHg 82%
    11:00 +5°C° 0.1 mm 1 mps 693 mmHg 80%
    12:00 +5°C° 0.1 mm 2 mps 693 mmHg 79%
    13:00 +5°C° 0.1 mm 2 mps 692 mmHg 81%
    14:00 +4°C° 0.1 mm 2 mps 692 mmHg 83%
    15:00 +4°C° 0.1 mm 2 mps 692 mmHg 85%
    16:00 +4°C° 0.3 mm 2 mps 693 mmHg 87%
    17:00 +4°C° 0.3 mm 2 mps 694 mmHg 90%
    18:00 +3°C° 0.3 mm 2 mps 694 mmHg 92%
    19:00 +3°C° 0.3 mm 2 mps 695 mmHg 92%
    20:00 +3°C° 0.3 mm 2 mps 695 mmHg 92%
    21:00 +3°C° 0.3 mm 2 mps 696 mmHg 92%
    22:00 +3°C° 0.3 mm 2 mps 696 mmHg 93%
    23:00 +3°C° 0.3 mm 1 mps 696 mmHg 94%

    22 November, Friday

    Time Temperature Precipitation Wind Pressure Humidity
    00:00 +3°C° 0.3 mm 1 mps 696 mmHg 95%
    01:00 +3°C° 0.5 mm 1 mps 696 mmHg 95%
    02:00 +2°C° 0.5 mm 2 mps 697 mmHg 95%
    03:00 +2°C° 0.5 mm 2 mps 697 mmHg 96%
    04:00 +2°C° 0.5 mm 2 mps 697 mmHg 95%
    05:00 +1°C° 0.5 mm 2 mps 697 mmHg 95%
    06:00 +1°C° 0.5 mm 2 mps 698 mmHg 95%
    07:00 +1°C° 0.2 mm 2 mps 698 mmHg 94%
    08:00 +1°C° 0.2 mm 2 mps 698 mmHg 94%
    09:00 +1°C° 0.2 mm 2 mps 698 mmHg 93%
    10:00 +1°C° 0.2 mm 2 mps 698 mmHg 92%
    11:00 +1°C° 0.2 mm 2 mps 697 mmHg 92%
    12:00 +1°C° 0.2 mm 2 mps 697 mmHg 91%
    13:00 +1°C° 0.2 mm 2 mps 697 mmHg 91%
    14:00 +1°C° 0.2 mm 2 mps 697 mmHg 91%
    15:00 +1°C° 0.2 mm 2 mps 696 mmHg 91%
    16:00 +2°C° 0.1 mm 1 mps 697 mmHg 92%
    17:00 +2°C° 0.1 mm 1 mps 697 mmHg 93%
    18:00 +1°C° 0.1 mm 1 mps 697 mmHg 94%
    19:00 +1°C° 0.1 mm 1 mps 698 mmHg 94%
    20:00 +1°C° 0.1 mm 1 mps 698 mmHg 94%
    21:00 -1°C° 0.1 mm 2 mps 698 mmHg 94%
    22:00 +1°C° 0.2 mm 1 mps 698 mmHg 94%
    23:00 +1°C° 0.2 mm 1 mps 698 mmHg 95%

    23 November, Saturday

    Time Temperature Precipitation Wind Pressure Humidity
    00:00 +1°C° 0.2 mm 1 mps 698 mmHg 96%
    01:00 +1°C° 0.2 mm 1 mps 698 mmHg 96%
    02:00 0°C° 0.2 mm 1 mps 698 mmHg 96%
    03:00 0°C° 0.2 mm 1 mps 698 mmHg 96%
    04:00 0°C° 0.2 mm 1 mps 697 mmHg 96%
    05:00 0°C° 0.2 mm 1 mps 697 mmHg 96%
    06:00 0°C° 0.2 mm 1 mps 697 mmHg 96%
    07:00 0°C° 0.1 mm 1 mps 697 mmHg 95%
    08:00 0°C° 0.1 mm 1 mps 697 mmHg 93%
    09:00 0°C° 0.1 mm 1 mps 697 mmHg 91%
    10:00 -2°C° 0.1 mm 2 mps 697 mmHg 89%
    11:00 -1°C° 0.1 mm 2 mps 696 mmHg 87%
    12:00 -1°C° 0.1 mm 2 mps 696 mmHg 85%
    13:00 -1°C° 0.1 mm 2 mps 695 mmHg 85%
    14:00 -1°C° 0.1 mm 2 mps 695 mmHg 84%
    15:00 -1°C° 0.1 mm 2 mps 695 mmHg 84%
    16:00 +1°C° 0 mm 1 mps 695 mmHg 85%
    17:00 +1°C° 0 mm 1 mps 695 mmHg 87%
    18:00 0°C° 0 mm 1 mps 696 mmHg 88%
    19:00 0°C° 0 mm 1 mps 696 mmHg 88%
    20:00 0°C° 0 mm 1 mps 696 mmHg 89%
    21:00 0°C° 0 mm 1 mps 696 mmHg 89%
    22:00 0°C° 0 mm 1 mps 696 mmHg 89%
    23:00 0°C° 0 mm 1 mps 696 mmHg 90%

    24 November, Sunday

    Time Temperature Precipitation Wind Pressure Humidity
    00:00 0°C° 0 mm 1 mps 696 mmHg 90%
    01:00 0°C° 0 mm 1 mps 696 mmHg 91%
    02:00 -2°C° 0 mm 0 mps 696 mmHg 91%
    03:00 -2°C° 0 mm 0 mps 696 mmHg 91%
    04:00 -2°C° 0 mm 0 mps 696 mmHg 91%
    05:00 -2°C° 0 mm 0 mps 695 mmHg 92%
    06:00 -2°C° 0 mm 0 mps 695 mmHg 92%
    07:00 -2°C° 0 mm 0 mps 695 mmHg 89%
    08:00 -1°C° 0 mm 0 mps 695 mmHg 86%
    09:00 -1°C° 0 mm 0 mps 695 mmHg 83%
    10:00 +1°C° 0 mm 1 mps 695 mmHg 81%
    11:00 +2°C° 0 mm 1 mps 694 mmHg 79%
    12:00 +2°C° 0 mm 1 mps 694 mmHg 77%
    13:00 +3°C° 0 mm 1 mps 693 mmHg 76%
    14:00 +2°C° 0 mm 0 mps 693 mmHg 76%
    15:00 +2°C° 0 mm 0 mps 693 mmHg 75%
    16:00 +1°C° 0 mm 0 mps 693 mmHg 77%
    17:00 +1°C° 0 mm 1 mps 693 mmHg 79%
    18:00 0°C° 0 mm 1 mps 693 mmHg 82%
    19:00 0°C° 0 mm 1 mps 693 mmHg 81%
    20:00 0°C° 0 mm 1 mps 693 mmHg 80%
    21:00 -1°C° 0 mm 0 mps 693 mmHg 79%
    22:00 -2°C° 0 mm 0 mps 693 mmHg 80%
    23:00 -2°C° 0 mm 0 mps 693 mmHg 80%
    Show more